Location: *
(48.8667°N, 2.3331°E)
Time: 05:44:13
(UTC+00:00)

NOSS 3-4 (C) - Pass Details

Date: 09 April 2020
Orbit: 897 x 1316 km, 63.4° (Epoch: 27 May)

Event Time Altitude Azimuth Distance (km) Brightness Sun altitude
Rises 19:24:26 0° 317° (NW) 3,818 8.0 -8.7°
Reaches altitude 10° 19:26:58 10° 315° (NW) 2,918 7.3 -9.1°
Maximum altitude 19:33:53 69° 234° (SW) 1,233 4.2 -10.1°
Drops below altitude 10° 19:41:31 10° 153° (SSE) 3,201 5.7 -11.2°
Enters shadow 19:42:39 - 152° (SSE) 3,593 6.0 -11.4°
